Content
SEND FEEDBACK

Daily
Averages
Monthly
Summary
United States of America

BARRINGTON, ILLINOIS


Home > North America > United States > Illinois
Elevation: 810 feet     Latitude: 42 10N     Longitude: 088 09W

WEATHER
 
SELECT A DAY
Number of Records: 194,558;   Date Range: 1/1/95 - 4/18/14
 
SHARE

PRINT THIS DATA

[ ← Previous Day ]
WEATHER ALMANAC - FEBRUARY 14, 2013
[ Next Day → ]
[ °C ]   °F
Weather ElementAverageHighLow
Temperature36.5 °F37.9 °F (4:51 am)33.1 °F (9:51 pm)
Dewpoint27.5 °F32 °F (3:51 am)21 °F (11:51 pm)
Humidity70.2 %82 % (1:51 am)57 % (4:51 pm)
Barometer29.77 in29.98 in (11:51 pm)29.62 in (5:51 am)
Wind Speed14.1 mph23 mph (10:14 am)
Wind Gust32.2 mph (2:11 pm)
Weather ElementAverage
Visibility10 mi
Wind DirectionWSW (264.1 °)

Weather ElementTotal
Precipitation---
Heating Degree Days29.5 (Base 65)
Averaged from 27 records on February 14, 2013
WEATHER CONDITIONS BREAKOUT
WIND DIRECTION BREAKOUT
WEATHER BY HOUR - FEBRUARY 14, 2013
[ °C ]   °F
Local TimeTemperatureDewpointHumidityBarometerVisibilityWind DirectionWind SpeedGust SpeedPrecipitationEventsConditions
1:51 AM36.0 °F30.9 °F82 %29.70 in10.0 miSSW (200°)6.9 mphOvercast
2:51 AM37.4 °F30.2 °F75 %29.67 in10.0 miSSW (200°)10.4 mphOvercast
3:51 AM37.0 °F32.0 °F82 %29.66 in10.0 miSouth (170°)11.5 mph0.00 inOvercast
4:51 AM37.9 °F30.9 °F76 %29.65 in10.0 miSSW (200°)12.7 mphOvercast
5:51 AM37.4 °F30.2 °F75 %29.62 in10.0 miSSW (210°)12.7 mphScattered Clouds
6:51 AM37.0 °F30.9 °F79 %29.64 in10.0 miSW (220°)12.7 mph19.6 mphPartly Cloudy
7:51 AM37.0 °F30.9 °F79 %29.66 in10.0 miWSW (240°)12.7 mph24.2 mphScattered Clouds
8:51 AM37.9 °F30.9 °F76 %29.67 in10.0 miWSW (250°)13.8 mph24.2 mphOvercast
9:51 AM37.9 °F30.9 °F76 %29.68 in10.0 miWSW (240°)15.0 mph24.2 mphOvercast
10:14 AM37.4 °F30.2 °F75 %29.67 in10.0 miWSW (250°)23.0 mph29.9 mph0.00 inRainLight Rain
10:51 AM37.4 °F30.2 °F75 %29.67 in10.0 miWSW (250°)19.6 mph29.9 mphOvercast
11:51 AM37.9 °F30.9 °F76 %29.70 in10.0 miWest (260°)18.4 mph25.3 mphOvercast
12:23 PM37.4 °F30.2 °F75 %29.69 in10.0 miWest (260°)17.3 mph27.6 mphOvercast
12:51 PM37.9 °F30.9 °F76 %29.72 in10.0 miWest (270°)17.3 mph27.6 mphOvercast
1:51 PM37.0 °F30.0 °F76 %29.74 in10.0 miWNW (300°)15.0 mph24.2 mphOvercast
2:11 PM37.4 °F26.6 °F65 %29.74 in10.0 miWNW (300°)23.0 mph32.2 mphOvercast
2:51 PM37.0 °F27.0 °F67 %29.79 in10.0 miWNW (290°)16.1 mph29.9 mphOvercast
3:16 PM37.4 °F26.6 °F65 %29.79 in10.0 miWNW (290°)16.1 mph25.3 mphOvercast
3:51 PM37.0 °F24.1 °F59 %29.83 in10.0 miWNW (290°)19.6 mph31.1 mphOvercast
4:51 PM37.0 °F23.0 °F57 %29.87 in10.0 miWNW (290°)20.7 mph27.6 mphOvercast
5:51 PM36.0 °F21.9 °F57 %29.91 in10.0 miWNW (300°)15.0 mph21.9 mphOvercast
6:51 PM35.1 °F23.0 °F61 %29.94 in10.0 miWNW (300°)11.5 mphOvercast
7:51 PM35.1 °F21.9 °F59 %29.95 in10.0 miWNW (300°)11.5 mphOvercast
8:51 PM34.0 °F23.0 °F64 %29.95 in10.0 miNW (320°)8.1 mphOvercast
9:51 PM33.1 °F21.9 °F64 %29.96 in10.0 miNNW (330°)5.8 mphMostly Cloudy
10:51 PM33.1 °F21.9 °F64 %29.97 in10.0 miNW (320°)6.9 mphOvercast
11:51 PM33.1 °F21.0 °F61 %29.98 in10.0 miWest (280°)6.9 mphOvercast
Hourly data recorded from KORD, located 15.49 miles away from Barrington, Illinois







STORIES FROM OUR PARTNERS